TimeCST,TemperatureF,Dew PointF,Humidity,Sea Level PressureIn,VisibilityMPH,Wind Direction,Wind SpeedMPH,Gust SpeedMPH,PrecipitationIn,Events,Conditions,WindDirDegrees,DateUTC
12:53 AM,27.0,21.9,81,30.02,9.0,North,9.2,-,N/A,,Clear,350,2012-12-23 06:53:00
1:53 AM,26.1,21.9,84,30.03,8.0,North,11.5,-,N/A,,Clear,360,2012-12-23 07:53:00
2:53 AM,23.0,19.0,85,30.02,7.0,NNW,5.8,-,N/A,,Clear,340,2012-12-23 08:53:00
3:53 AM,21.9,18.0,85,30.03,6.0,NNW,8.1,-,N/A,,Clear,330,2012-12-23 09:53:00
4:53 AM,21.0,17.1,85,30.03,5.0,NNW,10.4,-,N/A,,Clear,330,2012-12-23 10:53:00
5:53 AM,19.9,15.1,81,30.03,5.0,NNW,10.4,-,N/A,,Haze,340,2012-12-23 11:53:00
6:53 AM,18.0,12.9,81,30.04,6.0,North,9.2,-,N/A,,Haze,360,2012-12-23 12:53:00
7:53 AM,16.0,12.0,84,30.06,5.0,North,4.6,-,N/A,,Clear,350,2012-12-23 13:53:00
8:44 AM,19.4,14.0,80,30.02,4.0,North,8.1,-,N/A,,Haze,350,2012-12-23 14:44:00
8:53 AM,19.0,14.0,81,30.07,4.0,North,6.9,-,N/A,,Haze,360,2012-12-23 14:53:00
9:12 AM,19.4,14.0,80,30.02,5.0,NNE,6.9,-,N/A,,Haze,20,2012-12-23 15:12:00
9:53 AM,19.9,15.1,81,30.06,4.0,North,4.6,-,N/A,,Haze,10,2012-12-23 15:53:00
10:53 AM,23.0,17.1,78,30.05,4.0,NNW,6.9,-,N/A,,Haze,340,2012-12-23 16:53:00
11:43 AM,24.8,17.6,74,30.00,4.0,NNW,10.4,-,N/A,,Haze,330,2012-12-23 17:43:00
11:53 AM,25.0,18.0,75,30.05,4.0,NW,11.5,-,N/A,,Haze,310,2012-12-23 17:53:00
12:53 PM,28.0,19.0,69,30.01,5.0,NW,8.1,-,N/A,,Haze,320,2012-12-23 18:53:00
1:53 PM,28.0,19.0,69,30.00,6.0,NNW,13.8,-,N/A,,Haze,330,2012-12-23 19:53:00
2:00 PM,26.6,17.6,69,29.95,6.0,NW,12.7,-,N/A,,Haze,310,2012-12-23 20:00:00
2:53 PM,28.0,18.0,66,29.99,7.0,NNW,15.0,-,N/A,,Clear,340,2012-12-23 20:53:00
3:53 PM,27.0,18.0,69,29.99,7.0,NNW,12.7,-,N/A,,Clear,340,2012-12-23 21:53:00
4:53 PM,27.0,18.0,69,30.00,7.0,NNW,13.8,-,N/A,,Clear,330,2012-12-23 22:53:00
5:53 PM,26.1,17.1,69,30.03,9.0,NNW,9.2,-,N/A,,Clear,330,2012-12-23 23:53:00
6:53 PM,25.0,17.1,72,30.04,8.0,NNW,8.1,-,N/A,,Clear,340,2012-12-24 00:53:00
7:53 PM,25.0,17.1,72,30.05,8.0,NW,6.9,-,N/A,,Clear,320,2012-12-24 01:53:00
8:53 PM,23.0,16.0,74,30.04,7.0,NNW,3.5,-,N/A,,Clear,340,2012-12-24 02:53:00
9:53 PM,21.0,16.0,81,30.07,7.0,North,8.1,-,N/A,,Clear,350,2012-12-24 03:53:00
10:53 PM,19.9,15.1,81,30.09,6.0,NW,9.2,-,N/A,,Haze,320,2012-12-24 04:53:00
11:53 PM,19.0,14.0,81,30.09,7.0,NNW,9.2,-,N/A,,Clear,340,2012-12-24 05:53:00